Grizu-263a
1 51025U 22002AT 23271.70999655 .02008536 29025-2 35851-2 0 9992
2 51025 97.4223 349.2849 0010802 270.9307 89.0735 16.02406870 95202
NO-116
1 51031U 22002AZ 23271.43934067 .00068426 00000-0 15630-2 0 9990
2 51031 97.4338 342.5966 0007816 211.3923 148.6858 15.42585651 94762
IRIS-A
1 51044U 22002BN 23271.40007243 .00013538 00000-0 60171-3 0 9993
2 51044 97.4248 335.3706 0006706 231.2171 128.8466 15.21618367 94348
Tevel-7
1 51062U 22002CG 23271.72110299 .00029627 00000-0 10243-2 0 9994
2 51062 97.4246 338.2895 0006401 216.8989 143.1812 15.29844093 94569
Tevel-4
1 51063U 22002CH 23271.73151602 .00030016 00000-0 10401-2 0 9999
2 51063 97.4241 338.2708 0006447 216.7018 143.3782 15.29766783 94567
Tevel-2
1 51069U 22002CP 23271.63413333 .00029146 00000-0 10062-2 0 9991
2 51069 97.4231 338.1302 0006377 218.1757 141.9032 15.29895040 94559
DELFI-PQ
1 51074U 22002CU 23271.43440102 .00088404 00000-0 16744-2 0 9994
2 51074 97.4486 345.8312 0007678 234.5976 125.4557 15.48013906 94905
SO-115
1 51080U 22002DA 23271.42881560 .00036911 00000-0 10994-2 0 9994
2 51080 97.4515 342.7514 0008465 247.2707 112.7642 15.34566192 94698
SO-114
1 51081U 22002DB 23269.44609644 .00043235 00000-0 12820-2 0 9992
2 51081 97.4506 340.7437 0008637 254.0866 105.9426 15.34670381 94391
OreSat0
1 52017U 22026K 23271.59457149 .00024082 00000-0 84948-3 0 9998
2 52017 97.5106 274.5959 0023054 81.6197 278.7655 15.28994641 85329
Planetum 1
1 52738U 22057G 23271.31677005 .00019557 00000-0 81790-3 0 9990
2 52738 97.5472 27.5154 0006235 356.2296 3.8892 15.23615375 74340
Foresail-1
1 52766U 22057AL 23271.77910454 .00014062 00000-0 62252-3 0 9997
2 52766 97.5599 28.8319 0010881 334.1708 25.8983 15.21718465 74429
SNUGLITE 2
1 52899U 22065F 23271.33310513 .00002029 00000-0 43579-3 0 9996
2 52899 98.0839 53.4101 0006786 251.1967 108.8497 14.59610646 65903
CTIM
1 52950U 22074G 23271.62160745 .00132442 00000-0 16988-2 0 9992
2 52950 44.9962 135.8473 0014056 203.1957 156.8305 15.57913526 69648
IO-117
1 53106U 22080B 23269.37565288 -.00000003 00000-0 00000-0 0 9997
2 53106 70.1406 284.5561 0008473 167.7073 192.3795 6.42557266 28255
AstroBioCubeSat
1 53107U 22080C 23025.30817895 -.00000003 00000-0 00000-0 0 9995
2 53107 70.1710 9.4734 0013545 210.3158 149.6718 6.42110537 12478
SelfieSat
1 53951U 22057BC 23271.27191345 .00028106 00000-0 10820-2 0 9996
2 53951 97.5513 28.5047 0007677 343.6146 16.4842 15.26307761 74380
FO-118
1 54684U 22167C 23271.68749939 .00017150 00000-0 87373-3 0 9990
2 54684 97.5757 48.8268 0012397 341.0838 18.9932 15.16785193 44358
SSS-2B
1 56184U 23054G 23271.64910546 .00020131 00000-0 79159-3 0 9999
2 56184 97.3954 165.3074 0011706 42.1208 318.0927 15.25631617 25937
CIRBE
1 56188U 23054L 23271.64453920 .00024078 00000-0 91074-3 0 9995
2 56188 97.3915 165.3603 0010288 36.8128 323.3816 15.26901733 25948
INSPIRE-Sat 7
1 56211U 23054AK 23271.26474637 .00025639 00000-0 91092-3 0 9992
2 56211 97.3927 165.4624 0013931 19.2001 340.9761 15.28909292 25916
RoseyCubesat 1
1 56212U 23054AL 23271.69150546 .00028945 00000-0 10105-2 0 9998
2 56212 97.3936 165.9724 0014040 17.4845 342.6876 15.29455574 25984
ARKSAT 1
1 56311U 98067VC 23271.08314314 .00245786 00000-0 13061-2 0 9990
2 56311 51.6311 165.2324 0007769 147.6444 212.5035 15.79191923 24480
AuroraSat
1 56312U 98067VD 23271.69726128 .00619860 16778-3 16571-2 0 9997
2 56312 51.6241 158.7660 0007820 180.7604 179.3392 15.93860223 24654
Ex-Alta 2
1 56313U 98067VE 23271.07239170 .00266420 00000-0 13679-2 0 9990
2 56313 51.6273 165.1320 0007587 148.7243 211.4211 15.79893597 24504
LightCube
1 56314U 98067VF 23271.70415981 .00468363 93410-4 15588-2 0 9999
2 56314 51.6256 159.5726 0007304 167.5872 192.5314 15.89662488 24661
NEUDOSE
1 56315U 98067VG 23270.82513017 .00145627 00000-0 11722-2 0 9991
2 56315 51.6324 170.2712 0007612 124.8413 235.3301 15.69920728 24396
YukonSat
1 56316U 98067VH 23271.16803360 .00174849 00000-0 11431-2 0 9998
2 56316 51.6317 166.5481 0007599 131.4694 228.6959 15.74726270 24496
URESAT-1
1 56992U 23084BU 23271.54763926 .00019277 00000-0 10488-2 0 9994
2 56992 97.5148 26.4893 0017182 219.5340 140.4640 15.14371185 16273
MRC-100
1 56993U 23084BV 23271.28087101 .00019601 00000-0 10621-2 0 9990
2 56993 97.5152 26.2410 0017227 221.1758 138.8175 15.14510149 16240
UmKA 1 (RS40S)
1 57172U 23091G 23271.70788464 .00004829 00000-0 35193-3 0 9993
2 57172 97.6530 321.4984 0016785 296.0466 63.9032 15.04106860 13991
CubeBel-2 (EU11S)
1 57175U 23091K 23271.74150399 .00006673 00000-0 48967-3 0 9992
2 57175 97.6552 321.4479 0014960 309.8598 50.1311 15.03725934 13995
/EX
1
0

29 Sep '23
This week there are no additions or deletions to the AMSAT TLE distribution.
1
0

22 Sep '23
This week there are no additions or deletions to the AMSAT TLE distribution.
1
0
SB KEPS @ AMSAT $ORB23265.1
2Line Orbital Elements 23265.AMSAT
QST de W1STR
AMSAT Orbital Elements for Amateur Satellites in TLE Format
>From Orbital Analysis Office
New England Sci-Tech STEM Education Center
Natick, MA September 22, 2023
To all radio amateurs
These element sets describe the orbits of various satellites
in use by the amateur radio community. For details see:
www.amsat.org/keplerian-elements-formats/
A daily update of element sets is available at:
www.amsat.org/tle/daily-bulletin.txt
or without bulletin text:
www.amsat.org/tle/dailytle.txt
AO-07
1 07530U 74089B 23264.76970117 -.00000033 00000-0 83621-4 0 9999
2 07530 101.9575 252.1286 0011854 238.6758 295.8747 12.53667119235518
UO-11
1 14781U 84021B 23264.47542494 .00002541 00000-0 30183-3 0 9992
2 14781 97.6686 237.7484 0006575 239.8215 120.2349 14.85271847108437
AO-16
1 20439U 90005D 23264.59859807 .00000324 00000-0 13482-3 0 9990
2 20439 98.8913 257.3379 0009663 283.0678 191.8833 14.33163866758714
LO-19
1 20442U 90005G 23264.50759759 .00000316 00000-0 13142-3 0 9994
2 20442 98.8548 243.1305 0010624 255.4158 104.5847 14.33318064759145
AO-27
1 22825U 93061C 23264.60417880 .00000195 00000-0 92821-4 0 9990
2 22825 98.8320 309.0077 0009142 141.2909 218.8929 14.30347072564071
IO-26
1 22826U 93061D 23264.37333797 .00000237 00000-0 10793-3 0 9993
2 22826 98.8266 308.6351 0009855 129.0859 231.1201 14.30712834564310
FO-29
1 24278U 96046B 23264.53528496 .00000039 00000-0 74169-4 0 9990
2 24278 98.5406 230.0097 0350427 166.8463 194.2111 13.53154062337960
NOAA-15
1 25338U 98030A 23264.75093199 .00000261 00000-0 12640-3 0 9996
2 25338 98.6004 292.1334 0010932 37.5235 322.6706 14.26392528319027
GO-32
1 25397U 98043D 23264.48956342 .00000185 00000-0 10065-3 0 9997
2 25397 98.8793 222.8216 0000992 161.7527 198.3687 14.23911052309039
ISS
1 25544U 98067A 23264.84375265 .00017677 00000-0 32240-3 0 9999
2 25544 51.6421 209.7575 0005745 45.5139 355.8544 15.49507545416789
NO-44
1 26931U 01043C 23264.51491469 .00000248 00000-0 12580-3 0 9998
2 26931 67.0512 308.0896 0007359 258.8736 101.1539 14.30985391147365
SO-50
1 27607U 02058C 23264.55209408 .00002185 00000-0 31569-3 0 9990
2 27607 64.5567 329.4321 0058654 204.3533 155.4798 14.77638560116463
